EW7554 Weather Reports


time (UTC)temp
C
wind
direction
speed
KPH
gust
KPH
rain 1hr
cm
rain 24hr
cm
rain mn
cm
humidity
%
barometer
mb
20260510001529 15 315 11.3 29.0 0.00 0.00 0.00 30 1012.4
20260510000027 15 326 9.7 22.5 0.00 0.00 0.00 29 1012.2
20260509234535 15 325 9.7 24.1 0.00 0.00 0.00 29 1012.0
20260509233024 15 315 12.9 29.0 0.00 0.00 0.00 29 1011.9
20260509231523 15 332 8.0 24.1 0.00 0.00 0.00 28 1011.8
20260509230022 15 280 16.1 27.4 0.00 0.00 0.00 28 1011.6
20260509224520 15 322 11.3 32.2 0.00 0.00 0.00 28 1011.3
20260509223020 16 315 11.3 32.2 0.00 0.00 0.00 29 1011.2
20260509221520 15 331 14.5 30.6 0.00 0.00 0.00 28 1011.2
20260509220018 16 360 14.5 24.1 0.00 0.00 0.00 28 1011.1
20260509214520 16 355 9.7 25.7 0.00 0.00 0.00 29 1011.1
20260509213015 16 325 12.9 29.0 0.00 0.00 0.00 29 1010.9
20260509211515 15 297 9.7 30.6 0.00 0.00 0.00 30 1010.9
20260509210012 15 13 9.7 24.1 0.00 0.00 0.00 29 1010.9
20260509204512 15 343 14.5 33.8 0.00 0.00 0.00 30 1010.8
20260509203010 15 323 9.7 32.2 0.00 0.00 0.00 28 1010.7
20260509201510 15 333 11.3 27.4 0.00 0.00 0.00 30 1010.8
20260509200008 15 323 12.9 29.0 0.00 0.00 0.00 29 1010.8
20260509194507 15 317 11.3 29.0 0.00 0.00 0.00 31 1010.7
20260509193006 15 290 19.3 37.0 0.00 0.00 0.00 29 1010.6
20260509191506 15 271 9.7 25.7 0.00 0.00 0.00 34 1010.5
20260509190004 14 302 17.7 33.8 0.00 0.00 0.00 32 1010.6
20260509184655 14 304 16.1 29.0 0.00 0.00 0.00 35 1010.4
20260509183106 15 347 14.5 35.4 0.00 0.00 0.00 36 1010.3
20260509181556 14 305 12.9 25.7 0.00 0.00 0.00 36 1010.0
20260509180050 14 13 9.7 22.5 0.00 0.00 0.00 37 1009.9
20260509174547 13 321 19.3 30.6 0.00 0.00 0.00 37 1009.5